Lapse_Rate
6.2 6.2 6.3 6.2 6.2 6.1 6.1 6.0 5.9 5.9 5.9 5.9 5.9 5.9 6.0 6.0 6.1 6.3 6.4 6.7 6.7 6.7 6.8 6.6 6.6 6.5 6.4 6.6 6.5 6.4 6.2 6.5 6.7 6.5 6.2 6.1 5.8 6.0 5.8 6.1 6.2 6.2 6.0 6.1 6.3
6.2 6.3 6.4 6.4 6.4 6.2 6.1 6.1 6.0 5.9 5.9 6.0 6.0 6.0 5.9 6.0 6.1 6.2 6.1 6.3 6.5 6.7 6.6 6.6 6.5 6.5 6.5 6.3 6.9 6.6 6.4 6.8 6.8 6.6 6.3 6.0 6.1 5.9 5.8 6.0 6.1 5.9 6.3 6.2 6.5
6.1 6.3 6.4 6.5 6.5 6.4 6.3 6.3 6.2 6.2 6.2 6.1 6.1 6.1 6.1 6.1 6.1 6.1 6.1 6.2 6.4 6.6 6.4 6.4 6.3 6.3 6.4 6.7 7.0 6.8 6.6 6.8 6.6 6.6 6.4 6.3 5.8 6.0 6.5 6.1 6.1 6.0 6.0 6.2 6.5
6.1 6.2 6.4 6.5 6.5 6.5 6.4 6.4 6.4 6.4 6.5 6.5 6.5 6.4 6.4 6.3 6.2 6.2 6.1 6.1 6.3 6.5 6.4 6.6 6.6 6.2 6.4 6.7 6.9 6.8 6.7 6.9 6.7 6.8 6.5 6.5 6.1 6.4 6.5 6.4 6.3 6.2 6.0 6.3 6.2
6.3 6.2 6.3 6.5 6.5 6.6 6.6 6.6 6.7 6.6 6.6 6.7 6.7 6.7 6.7 6.7 6.2 6.2 6.2 6.2 6.3 6.5 6.5 6.6 6.4 6.4 6.4 6.6 6.5 6.6 6.8 7.2 7.7 7.4 7.1 6.3 6.4 6.2 6.3 6.6 6.3 6.2 5.9 6.0 6.0
6.3 6.4 6.4 6.5 6.6 6.7 6.8 6.8 6.8 6.8 6.8 6.8 6.9 6.9 6.9 6.8 6.4 6.3 6.3 6.4 6.4 6.6 6.6 6.5 6.3 6.4 6.7 6.6 6.6 7.2 6.8 7.1 7.9 7.5 7.6 6.9 6.2 6.3 6.5 6.9 6.6 6.3 5.9 5.7 5.8
6.3 6.4 6.6 6.6 6.7 6.8 6.8 6.9 6.9 6.9 6.9 6.9 7.0 7.0 6.9 6.9 7.0 6.8 6.7 6.7 6.7 6.7 6.7 6.5 6.5 6.5 7.0 7.1 6.8 7.3 7.6 7.4 7.3 7.6 7.4 7.2 7.1 6.7 6.8 6.5 6.6 6.3 5.6 5.8 5.7
6.5 6.5 6.6 6.7 6.8 6.9 6.9 6.9 7.0 7.0 7.0 7.0 7.0 7.1 7.2 7.3 7.1 7.0 6.8 6.9 7.0 7.0 6.8 6.5 6.5 6.8 7.2 7.4 7.2 7.6 7.6 7.5 7.3 7.3 7.4 7.6 7.9 7.0 6.3 6.7 6.7 6.4 6.1 6.0 6.3
6.7 6.7 6.7 6.8 6.8 7.0 7.1 7.1 7.1 7.2 7.3 7.2 7.1 7.2 7.2 7.0 6.6 6.7 7.0 6.9 6.9 6.8 6.6 6.5 6.5 6.9 7.4 7.4 7.5 7.9 7.9 7.5 7.1 7.3 7.4 7.9 8.1 7.6 6.7 6.4 6.6 6.7 6.4 6.2 6.3
6.9 6.9 7.0 6.9 7.0 7.0 7.1 7.2 7.3 7.3 7.4 7.3 7.2 7.0 6.8 6.7 6.8 6.7 6.6 6.7 6.7 6.6 6.6 6.5 6.7 6.9 7.5 7.3 7.8 7.9 7.8 7.6 7.2 7.6 7.6 7.8 8.1 7.9 7.2 6.9 6.9 6.6 6.7 6.8 6.8
7.0 7.1 7.1 7.1 7.1 7.1 7.2 7.2 7.3 7.3 7.3 7.4 7.2 7.1 6.9 6.8 6.7 6.7 6.5 6.3 6.3 6.1 6.2 6.4 6.5 7.1 7.5 7.4 7.4 7.5 7.5 7.2 7.9 8.0 7.7 7.8 8.3 8.4 7.9 7.5 7.4 7.6 7.4 7.5 7.2
7.0 7.1 7.2 7.2 7.2 7.1 7.1 7.3 7.4 7.3 7.6 7.3 7.4 7.2 6.8 7.0 6.9 6.6 6.4 6.5 6.3 6.2 6.1 6.2 6.7 7.1 7.2 7.3 7.4 7.5 7.4 7.8 8.0 7.9 7.8 7.8 7.8 8.0 8.1 8.2 7.9 7.4 7.3 7.3 6.8
6.9 7.0 7.0 7.1 7.0 6.9 7.0 7.4 7.3 7.2 7.5 7.5 7.5 7.4 6.9 6.7 6.6 6.6 6.5 6.2 6.4 6.3 6.3 6.4 7.1 7.0 7.0 7.2 7.3 7.7 7.5 7.8 7.8 8.2 8.4 7.8 7.6 7.8 8.3 8.5 8.3 7.9 7.3 7.3 7.3
6.9 6.9 6.9 6.9 6.9 6.9 7.0 7.1 7.1 7.0 7.2 7.5 7.6 7.5 7.3 6.8 6.8 6.5 6.3 6.3 6.4 6.5 6.5 6.5 7.3 7.2 7.1 7.2 7.2 7.6 8.3 8.1 8.2 8.1 8.1 8.4 7.5 8.3 8.4 8.4 8.5 8.4 8.0 7.5 7.4
7.0 6.9 6.8 6.7 6.8 6.8 6.9 7.0 6.9 6.9 6.7 7.7 7.7 7.6 6.9 6.8 7.2 7.0 6.8 6.4 6.6 6.7 6.7 7.2 7.2 7.2 7.2 7.2 7.3 7.4 7.7 8.0 8.2 8.3 8.2 8.7 8.2 8.8 8.5 8.9 8.9 8.8 8.4 8.1 7.3
7.0 6.8 6.8 6.7 6.7 6.7 6.9 6.9 6.8 6.9 7.2 7.6 7.8 7.9 7.7 7.1 7.1 7.1 6.9 6.9 6.9 6.7 6.8 6.9 7.1 7.3 7.6 7.6 7.6 7.6 7.8 8.1 8.2 8.2 7.6 8.9 8.3 8.8 8.8 8.6 8.4 8.7 8.7 8.4 8.1
6.7 6.7 6.7 6.6 6.6 6.7 6.8 6.9 6.8 7.2 7.3 7.5 7.9 7.9 7.8 7.4 7.3 7.1 7.1 7.0 7.2 7.1 7.3 7.5 7.9 8.4 8.2 8.2 8.5 8.2 8.0 7.7 7.2 6.6 6.6 8.4 8.4 8.8 8.8 8.6 8.4 8.9 8.8 8.7 8.5
6.5 6.5 6.5 6.6 6.7 6.7 6.8 6.8 6.7 6.8 7.0 7.2 7.6 7.7 7.5 7.4 7.4 7.3 7.3 7.2 7.6 7.5 7.4 7.6 8.2 8.9 9.0 8.9 8.4 8.3 8.3 8.5 6.9 6.0 7.1 8.2 8.3 8.9 9.1 9.0 9.1 9.1 8.8 8.5 8.4
6.5 6.5 6.6 6.5 6.7 6.9 6.8 6.7 6.7 7.0 7.0 7.1 7.3 7.2 7.0 7.5 7.5 7.7 7.5 7.5 7.6 7.7 7.4 7.7 8.3 8.8 8.8 8.9 8.8 9.1 9.0 9.0 8.6 7.6 7.3 8.5 8.8 9.1 9.2 9.6 9.5 9.3 8.9 8.7 8.8
6.1 6.3 6.6 6.6 6.7 6.7 6.7 6.7 6.5 6.3 6.8 7.2 7.3 7.2 6.9 7.1 7.1 7.6 7.8 7.3 7.4 7.3 7.5 7.7 7.4 8.6 8.7 8.5 8.7 8.9 9.0 8.9 8.7 7.4 7.1 8.1 8.7 9.1 9.3 9.3 9.4 9.3 9.1 8.9 8.8
5.9 6.2 6.2 6.5 6.5 6.5 6.4 6.1 6.4 6.5 6.8 7.2 7.4 7.2 6.8 7.0 7.4 7.5 7.2 7.2 7.6 7.9 7.8 7.8 7.5 8.8 8.3 8.5 8.3 8.9 8.8 8.9 8.8 8.6 6.9 6.2 8.4 8.6 9.1 9.2 9.3 9.3 9.3 9.1 9.0
6.0 6.4 6.4 6.1 6.1 5.9 6.0 6.2 6.5 6.7 6.9 6.9 7.2 7.3 7.1 7.1 7.2 7.5 7.5 7.3 7.7 8.0 7.9 7.9 8.0 8.1 8.4 8.8 8.8 8.8 8.8 8.8 8.4 8.3 8.3 8.1 7.9 8.8 8.9 9.0 8.8 9.2 9.3 9.2 9.0
5.9 6.1 5.9 5.7 5.7 6.0 6.3 6.2 6.2 6.5 6.7 6.8 6.7 7.0 6.9 7.0 7.1 7.1 7.1 7.3 7.3 7.6 8.0 7.9 7.9 7.9 8.4 8.6 8.6 8.7 8.3 8.4 8.4 8.4 8.4 7.5 8.0 8.6 9.0 9.0 8.7 8.7 9.2 9.2 8.8
6.1 6.0 5.9 5.7 5.9 6.1 6.2 5.9 6.3 6.5 6.5 6.8 6.9 6.8 6.8 6.7 7.0 6.9 6.9 6.9 7.1 7.3 7.6 7.5 7.7 7.5 7.5 7.9 7.9 7.8 8.0 8.1 8.2 8.3 8.4 8.3 8.3 8.4 8.6 8.8 8.9 9.0 8.8 8.9 8.9
6.1 6.2 6.2 5.9 5.9 6.0 6.2 6.3 6.5 6.6 6.7 6.4 6.3 6.3 6.3 6.3 6.5 6.7 6.8 6.9 7.1 6.9 6.9 6.8 6.6 6.9 7.2 7.1 7.1 7.3 7.5 8.0 8.2 8.3 8.2 8.2 8.1 8.4 8.6 8.5 8.7 8.6 8.9 9.0 9.0
6.4 6.2 6.3 6.2 6.3 6.3 6.3 6.6 6.6 6.5 6.3 6.2 6.2 6.4 6.3 6.0 5.9 5.8 5.9 6.3 6.6 6.7 6.9 6.5 6.2 6.4 6.8 7.3 7.1 7.0 7.6 7.6 7.9 8.1 7.9 7.8 8.0 8.4 8.5 8.3 8.6 9.0 8.6 8.9 8.9
6.6 6.5 6.4 6.3 6.2 6.2 6.3 6.4 6.5 6.3 5.9 5.8 6.1 6.2 6.3 6.1 5.7 5.6 5.6 5.7 5.8 6.3 6.7 6.3 6.4 6.1 5.9 6.4 6.4 6.9 7.8 7.9 7.5 7.3 7.5 7.8 7.9 8.1 8.1 7.9 8.0 8.2 8.6 8.5 8.7
Wind_Speed
12 12 12 12 13 13 13 13 13 13 13 13 14 14 14 15 16 2 5 9 5 9 5 2 2 3 1 1 3 3 4 1 3 4 5 8 7 8 6 8 2 4 6 8 16
13 13 13 13 13 13 13 13 14 14 13 13 14 13 13 13 2 6 10 11 15 15 3 2 1 3 3 2 3 3 3 4 3 4 8 13 10 6 3 3 3 7 10 19 17
13 13 14 13 14 14 13 13 14 14 14 14 13 13 13 10 3 6 2 17 14 13 1 1 1 2 2 4 3 4 5 3 4 6 8 13 14 5 8 3 5 12 15 17 15
14 14 14 14 14 15 14 13 14 15 14 14 13 13 13 2 3 1 7 11 10 11 2 1 2 1 3 3 4 2 6 4 3 6 6 7 8 4 6 6 10 17 18 17 16
14 14 14 15 15 15 15 14 14 14 14 13 12 11 3 3 8 3 5 11 9 7 5 3 2 0 4 7 2 5 4 5 7 9 4 8 7 4 5 5 13 15 17 17 16
15 15 15 15 15 16 15 15 15 14 13 11 9 9 0 3 4 3 5 6 4 5 4 4 3 3 4 3 2 4 3 4 5 7 9 7 3 2 5 7 15 16 18 16 17
16 16 16 16 16 17 17 17 16 13 12 9 6 2 1 12 3 4 5 5 2 3 3 4 3 3 3 6 2 3 1 3 4 4 3 7 0 8 5 8 18 18 15 15 15
16 17 17 16 16 17 20 20 18 13 9 6 3 1 6 4 5 3 2 3 3 5 2 3 3 4 2 5 6 3 4 2 6 5 4 7 8 8 8 12 17 16 15 15 16
18 17 17 16 16 18 21 23 17 8 4 2 1 1 9 5 2 5 4 2 1 1 3 4 1 1 6 3 5 6 2 2 7 7 3 5 8 5 11 15 15 15 16 16 15
18 17 17 16 16 17 23 16 1 2 2 3 3 3 5 3 3 4 5 4 1 2 4 4 5 2 4 5 3 2 4 4 8 3 6 7 13 3 7 12 15 14 16 18 17
19 18 16 15 14 13 9 2 3 2 2 8 6 3 4 5 3 3 6 6 2 4 2 4 3 6 10 6 5 3 4 7 18 12 8 14 14 15 9 9 10 9 9 16 19
19 18 16 14 12 9 2 2 4 3 6 12 8 7 5 3 5 1 5 5 5 6 3 4 6 12 5 5 4 5 6 16 15 14 9 5 15 8 9 14 16 13 10 10 16
20 17 15 13 11 2 3 7 2 6 1 6 5 6 5 9 7 7 11 6 5 5 5 7 11 3 4 5 4 5 5 10 8 4 2 3 6 8 6 6 6 9 6 7 14
21 17 14 11 3 2 4 4 8 6 4 5 3 6 5 5 4 8 9 6 2 10 7 6 8 8 8 8 5 7 19 11 7 2 3 3 6 7 5 9 10 13 12 9 11
21 16 10 4 3 3 2 7 4 3 2 2 2 2 3 8 2 4 5 4 8 7 7 9 5 6 6 9 6 11 6 7 4 3 2 1 2 8 1 8 10 15 14 13 10
21 14 5 3 2 7 10 6 2 5 1 3 3 5 5 1 4 2 5 4 4 5 3 9 3 4 8 8 9 6 1 5 5 3 2 3 4 10 3 7 5 6 16 16 12
19 9 6 5 3 7 3 3 5 3 3 1 5 4 2 1 3 3 6 7 6 2 6 6 7 6 6 4 1 5 6 3 4 4 7 3 2 10 11 10 12 10 16 18 13
24 8 9 4 6 7 3 5 2 1 5 4 2 4 3 4 5 2 5 5 6 3 3 1 8 3 4 7 6 7 9 6 5 3 5 1 5 7 9 11 9 11 10 10 11
5 1 2 4 14 1 5 2 5 5 4 5 3 6 3 7 3 3 5 2 6 9 7 3 7 3 5 3 7 2 4 4 7 3 3 4 7 12 7 9 4 8 6 10 12
0 1 3 6 12 4 5 4 3 5 5 1 3 2 4 5 4 2 1 5 8 6 8 6 6 12 15 3 2 5 7 3 3 3 4 5 5 5 11 13 9 8 9 8 10
1 3 3 8 3 5 3 5 5 7 5 1 3 4 3 1 2 4 4 4 10 8 3 3 5 19 1 5 7 1 3 5 6 4 5 2 6 6 5 4 11 11 8 10 14
2 3 3 3 4 1 1 4 4 7 7 6 5 4 2 3 2 3 3 5 11 5 3 2 3 4 9 4 4 3 3 5 5 5 2 3 6 7 6 1 4 8 10 3 8
3 0 3 4 2 3 5 4 5 7 7 6 7 6 4 2 2 3 5 2 12 6 5 5 3 4 9 6 6 5 3 4 4 3 5 5 6 3 7 5 5 4 8 6 3
3 3 4 4 0 1 3 4 4 5 5 6 4 3 5 4 5 2 4 4 7 3 5 4 1 5 5 4 3 4 5 6 4 4 4 6 6 9 9 7 4 8 3 6 5
4 1 2 2 3 5 1 4 4 6 5 9 5 5 3 5 6 5 2 3 5 2 4 3 4 4 6 8 5 5 6 7 5 6 6 3 5 10 9 6 1 5 10 4 2
3 3 4 1 3 2 6 5 4 5 4 4 2 4 2 1 5 4 2 2 5 3 3 2 4 3 6 5 5 5 9 8 3 3 2 4 6 4 6 6 5 5 7 6 5
2 2 3 5 4 3 2 1 4 4 1 5 3 2 5 2 5 8 7 6 7 5 2 2 3 1 4 4 8 5 5 1 1 2 4 3 5 6 4 6 7 6 5 8 9
Wind_Direction
356 353 353 349 347 345 342 339 336 337 337 333 331 328 324 323 316 145 256 223 175 127 147 89 174 225 167 263 141 105 60 303 226 162 154 181 198 232 256 174 349 224 155 164 149
355 353 348 344 344 343 341 336 334 334 334 332 329 324 322 330 302 243 248 230 213 139 129 146 327 20 313 244 165 106 100 230 220 146 163 181 194 197 180 131 62 82 90 132 146
352 347 344 341 339 339 338 336 334 332 331 331 327 323 319 322 321 250 219 222 210 154 88 165 214 161 249 204 204 168 195 172 257 211 145 178 202 224 151 210 211 151 142 149 160
349 344 341 338 335 334 334 333 331 329 329 329 327 324 318 257 207 269 311 209 151 140 136 282 73 105 280 298 175 266 261 170 267 155 158 172 147 171 211 204 166 156 155 160 170
346 341 337 335 334 332 331 329 327 326 325 324 326 328 321 13 254 302 65 130 126 134 167 184 54 219 341 312 173 214 231 213 224 164 193 137 188 183 246 161 156 156 163 171 175
344 340 336 333 330 327 327 325 323 320 319 319 319 321 324 280 261 248 127 134 146 152 179 151 193 227 271 256 196 249 226 271 174 186 174 170 136 175 227 167 165 169 180 186 185
341 337 333 331 328 324 323 318 314 311 308 304 304 291 128 235 70 83 140 165 176 167 167 213 145 44 297 293 293 205 217 319 247 174 217 124 317 226 195 180 178 186 188 192 199
336 333 332 329 325 322 319 315 310 303 295 279 264 261 250 248 339 158 187 301 224 215 211 228 190 251 187 310 7 2 52 19 285 175 197 136 268 237 177 163 179 191 196 199 203
331 329 330 326 325 323 317 312 302 282 250 159 78 90 270 304 216 209 165 222 12 246 255 271 135 49 15 27 8 6 319 279 308 208 167 184 262 264 173 177 188 197 206 202 203
328 329 326 324 324 325 318 307 77 131 212 199 255 337 272 204 211 189 190 153 157 23 7 57 49 32 38 67 232 298 330 286 267 231 232 209 259 254 177 186 208 207 212 203 197
329 327 323 321 322 331 346 60 33 342 254 196 196 237 297 285 202 182 154 104 46 49 170 8 49 248 253 204 206 239 257 258 285 283 203 222 233 246 193 203 220 213 209 198 201
327 324 321 319 319 322 317 189 212 216 296 228 234 276 277 48 347 243 105 128 133 217 91 358 260 245 249 264 248 247 276 278 274 272 177 213 241 266 191 221 213 213 212 208 203
325 322 319 316 316 289 206 229 251 28 5 293 182 207 210 145 205 240 147 148 147 183 188 183 242 72 190 276 273 257 212 267 245 327 194 106 309 277 243 212 192 235 217 185 194
321 318 314 317 313 182 248 258 259 171 48 278 274 270 144 153 255 208 166 141 164 197 163 225 280 252 283 273 154 271 277 261 263 76 251 103 270 269 268 247 221 221 227 207 187
321 314 303 269 310 183 175 324 141 61 75 356 211 80 176 157 185 209 177 69 176 192 121 238 221 205 220 237 158 235 269 247 235 170 41 338 35 269 25 276 232 222 220 218 192
320 306 271 185 217 243 309 313 69 44 31 355 137 179 130 326 319 98 153 75 171 184 232 234 256 199 219 238 180 265 175 38 46 76 354 227 130 291 247 221 272 207 208 217 198
319 283 190 177 219 311 285 65 42 98 328 294 237 137 82 217 282 142 158 209 192 134 257 316 248 241 185 285 37 94 67 331 342 4 233 85 101 237 280 250 236 240 202 212 197
328 174 225 228 267 350 50 50 90 287 278 303 23 89 139 181 240 145 129 228 266 130 54 264 321 187 176 179 215 184 152 157 215 212 264 237 244 268 255 284 235 239 189 200 194
347 162 210 256 214 142 72 85 210 203 268 311 7 73 343 5 320 171 176 249 222 171 184 186 266 299 204 186 144 190 208 191 112 25 40 257 290 304 334 339 322 234 165 196 188
161 348 272 145 158 69 74 237 247 232 317 53 89 67 45 325 12 39 105 347 338 196 172 222 283 271 281 183 226 171 162 78 10 165 242 279 282 239 343 333 325 298 239 206 199
55 57 289 180 93 50 146 238 276 267 246 278 127 106 159 138 244 349 9 66 351 323 144 156 185 274 289 195 237 20 231 54 122 141 177 235 265 222 234 306 330 319 273 228 197
77 59 323 341 52 29 178 210 289 327 6 29 67 77 56 23 329 48 82 26 337 337 21 302 185 275 218 258 315 202 177 141 136 244 218 158 266 218 213 213 14 342 335 247 242
77 231 338 72 76 319 298 306 34 16 8 24 25 45 21 62 42 59 20 44 9 34 17 327 335 344 335 354 6 37 359 112 115 88 197 151 262 251 296 358 332 360 347 328 147
75 61 340 47 63 38 344 358 356 2 66 53 23 80 50 44 26 3 359 354 340 360 356 99 98 166 205 243 250 309 319 322 158 132 202 222 264 308 311 291 350 315 60 299 102
26 46 175 330 345 356 341 7 17 6 23 27 31 70 47 6 350 351 336 310 284 13 47 82 252 217 232 258 256 253 243 283 224 225 182 282 209 263 272 266 139 278 297 147 85
79 43 355 343 309 6 16 351 24 335 35 350 45 315 54 191 195 263 261 267 238 300 60 355 262 308 293 257 232 254 276 263 315 87 300 283 287 226 300 324 268 266 296 276 221
335 7 98 320 357 67 333 73 19 338 294 48 333 48 356 331 210 226 216 225 233 254 144 209 176 91 259 341 338 309 211 86 227 313 248 246 258 324 293 300 319 321 340 303 294